Total_Precipitation_Accumulation
0.03 0.07 0.12 0.15 0.16 0.14 0.10 0.07 0.11 0.14 0.27 0.33 0.44 0.54 0.67 0.70 0.63 0.57 0.61 0.62 0.61 0.69 0.85 0.93 1.07 1.10 1.07 1.06 1.12 1.20 1.27 1.37 1.55 1.69 1.69 1.58 1.59 1.69 1.76 1.80 1.75 1.87 1.84 1.81
0.03 0.06 0.11 0.12 0.14 0.10 0.08 0.07 0.09 0.13 0.20 0.27 0.43 0.51 0.60 0.58 0.55 0.63 0.64 0.58 0.55 0.66 0.85 0.88 0.89 0.95 0.95 0.97 1.01 1.03 1.12 1.25 1.45 1.64 1.73 1.75 1.81 1.91 1.93 1.90 2.00 2.06 1.99 1.98
0.04 0.07 0.10 0.17 0.14 0.10 0.10 0.09 0.11 0.16 0.23 0.26 0.37 0.51 0.63 0.67 0.71 0.73 0.64 0.58 0.59 0.64 0.74 0.90 0.83 0.81 0.90 0.95 1.06 1.16 1.32 1.50 1.60 1.77 1.89 1.92 1.88 1.91 1.94 1.95 1.93 1.99 2.01 2.03
0.10 0.11 0.16 0.19 0.15 0.15 0.15 0.17 0.20 0.23 0.28 0.36 0.40 0.51 0.63 0.68 0.66 0.70 0.72 0.78 0.83 0.90 0.90 0.98 0.96 0.94 1.00 1.04 1.16 1.22 1.29 1.45 1.58 1.75 1.88 1.95 2.04 2.09 2.15 2.19 2.19 2.19 2.12 2.09
0.17 0.16 0.19 0.23 0.23 0.24 0.26 0.33 0.35 0.41 0.47 0.48 0.48 0.50 0.63 0.73 0.75 0.85 0.83 0.86 0.93 0.98 1.02 1.02 1.10 1.18 1.27 1.25 1.37 1.49 1.51 1.67 1.81 1.89 2.03 2.09 2.13 2.25 2.34 2.39 2.35 2.32 2.29 2.31
0.28 0.30 0.33 0.35 0.36 0.30 0.35 0.66 0.60 0.59 0.65 0.65 0.70 0.88 0.96 0.97 0.93 0.94 0.93 0.96 1.02 0.98 0.99 1.10 1.17 1.27 1.38 1.53 1.66 1.82 1.89 1.93 2.00 2.12 2.19 2.17 2.17 2.23 2.24 2.25 2.26 2.26 2.21 2.26
0.41 0.41 0.40 0.38 0.39 0.40 0.73 1.04 0.99 0.96 0.95 0.88 0.97 1.04 0.96 0.89 0.99 1.00 1.07 1.14 1.11 1.09 1.13 1.18 1.18 1.26 1.42 1.62 1.77 1.84 1.89 1.96 2.05 2.14 2.32 2.40 2.41 2.27 2.12 2.09 2.13 2.21 2.21 2.26
0.63 0.75 0.77 0.52 0.55 0.80 1.01 0.98 1.16 1.09 1.00 1.03 1.01 0.95 0.88 0.89 1.02 1.12 1.17 1.24 1.24 1.23 1.20 1.23 1.31 1.37 1.48 1.65 1.76 1.84 1.84 1.94 2.03 2.07 2.09 2.13 2.34 2.39 2.29 2.19 2.12 2.14 2.20 2.17
0.88 0.97 0.86 0.73 0.75 0.88 0.83 0.85 1.02 1.04 0.95 0.95 0.94 0.90 0.87 0.89 0.96 1.01 1.06 1.13 1.17 1.21 1.25 1.29 1.36 1.47 1.60 1.68 1.76 1.80 1.90 2.04 2.16 2.16 2.19 2.17 2.18 2.23 2.19 2.11 1.96 1.81 1.87 1.92
1.15 1.16 1.03 0.88 0.78 0.80 0.81 0.82 0.86 0.95 1.00 1.00 0.97 0.92 0.92 0.91 0.93 1.06 1.12 1.15 1.20 1.21 1.24 1.39 1.52 1.66 1.69 1.68 1.76 1.94 2.02 2.06 2.08 2.08 2.06 2.12 2.23 2.15 2.07 2.07 2.00 1.82 1.83 1.90
1.64 1.70 1.49 1.31 1.13 1.03 0.98 0.97 1.00 1.10 1.14 1.19 1.19 1.13 1.09 1.02 0.99 1.03 1.09 1.11 1.18 1.27 1.32 1.42 1.51 1.63 1.72 1.75 1.80 1.89 1.85 1.77 1.81 1.86 1.86 1.86 2.01 2.07 1.89 1.82 1.89 1.84 1.92 2.10
2.00 1.86 1.83 1.68 1.38 1.21 1.20 1.26 1.22 1.24 1.29 1.23 1.17 1.16 1.13 1.11 1.00 0.94 0.95 1.05 1.13 1.22 1.34 1.41 1.46 1.52 1.55 1.61 1.71 1.81 1.86 1.79 1.72 1.71 1.73 1.77 1.78 1.82 1.80 1.58 1.57 1.53 1.58 1.69
1.70 1.71 1.77 1.65 1.48 1.32 1.34 1.32 1.37 1.41 1.36 1.25 1.16 1.09 1.04 1.05 1.05 1.01 1.02 1.06 1.14 1.21 1.28 1.38 1.40 1.43 1.42 1.48 1.65 1.82 1.91 1.96 1.86 1.64 1.55 1.55 1.56 1.55 1.58 1.51 1.30 1.23 1.23 1.21
1.70 1.72 1.76 1.69 1.65 1.48 1.46 1.36 1.34 1.32 1.24 1.20 1.20 1.15 1.05 1.02 1.11 1.19 1.22 1.24 1.29 1.33 1.28 1.23 1.24 1.30 1.32 1.35 1.44 1.55 1.61 1.68 1.63 1.55 1.48 1.40 1.36 1.33 1.29 1.38 1.38 1.25 1.17 1.12
1.50 1.53 1.64 1.60 1.55 1.55 1.55 1.48 1.39 1.30 1.18 1.20 1.25 1.23 1.20 1.21 1.28 1.42 1.46 1.47 1.47 1.41 1.29 1.19 1.17 1.21 1.25 1.33 1.37 1.38 1.45 1.48 1.45 1.46 1.50 1.49 1.50 1.45 1.35 1.37 1.47 1.49 1.38 1.17
1.35 1.45 1.45 1.52 1.64 1.55 1.46 1.42 1.41 1.36 1.23 1.19 1.23 1.22 1.19 1.19 1.29 1.38 1.43 1.52 1.61 1.60 1.45 1.34 1.24 1.16 1.16 1.29 1.38 1.36 1.39 1.53 1.50 1.41 1.42 1.53 1.58 1.50 1.50 1.61 1.63 1.73 1.72 1.43
1.40 1.47 1.42 1.45 1.57 1.57 1.47 1.39 1.40 1.35 1.30 1.31 1.29 1.19 1.17 1.20 1.31 1.41 1.37 1.34 1.38 1.37 1.32 1.29 1.21 1.11 1.10 1.19 1.26 1.30 1.32 1.39 1.46 1.41 1.42 1.48 1.52 1.53 1.51 1.58 1.69 1.75 1.71 1.49
1.29 1.23 1.21 1.25 1.31 1.36 1.37 1.38 1.38 1.29 1.25 1.26 1.28 1.22 1.19 1.22 1.34 1.45 1.41 1.33 1.22 1.13 1.13 1.12 1.03 0.99 1.02 1.07 1.13 1.23 1.27 1.31 1.34 1.35 1.38 1.39 1.40 1.49 1.56 1.63 1.70 1.75 1.64 1.49
1.30 1.20 1.14 1.12 1.07 1.09 1.17 1.23 1.24 1.22 1.15 1.13 1.17 1.16 1.13 1.11 1.19 1.28 1.29 1.37 1.39 1.30 1.19 1.07 0.97 0.88 0.91 0.95 0.99 1.06 1.13 1.18 1.23 1.25 1.25 1.22 1.22 1.25 1.27 1.36 1.48 1.54 1.47 1.42
1.39 1.34 1.19 1.11 1.07 0.99 1.01 1.02 1.10 1.17 1.10 1.03 1.02 1.03 1.02 1.04 1.13 1.29 1.35 1.43 1.53 1.45 1.29 1.15 0.90 0.79 0.77 0.78 0.81 0.78 0.82 0.83 0.85 0.89 0.91 0.97 1.01 1.04 1.03 1.07 1.20 1.27 1.21 1.25
1.47 1.41 1.29 1.19 1.18 1.09 1.02 0.93 0.97 1.06 1.05 1.07 1.11 1.09 1.06 1.03 1.06 1.26 1.54 1.67 1.53 1.35 1.23 1.21 0.94 0.73 0.64 0.68 0.75 0.73 0.75 0.75 0.75 0.78 0.79 0.83 0.87 0.91 0.99 1.05 1.10 1.12 1.15 1.16
1.43 1.35 1.27 1.19 1.14 1.12 1.08 0.98 0.95 0.99 1.01 1.06 1.01 0.99 1.04 1.02 1.02 1.15 1.32 1.54 1.44 1.32 1.10 1.04 0.89 0.67 0.59 0.55 0.54 0.63 0.71 0.77 0.79 0.82 0.85 0.87 0.91 0.96 1.00 0.99 0.99 1.01 1.04 1.08
1.40 1.31 1.23 1.11 1.04 1.03 1.00 0.99 0.97 0.96 0.96 0.96 0.93 0.97 1.04 1.05 1.02 1.16 1.27 1.13 1.06 1.07 0.96 0.93 0.86 0.72 0.60 0.52 0.52 0.56 0.62 0.68 0.73 0.75 0.76 0.79 0.85 0.89 0.93 0.95 0.95 0.94 1.01 1.05
1.32 1.35 1.30 1.21 1.06 1.00 1.02 1.02 0.98 0.97 0.94 0.94 0.93 0.97 1.01 1.02 0.98 0.94 0.98 0.99 0.99 0.97 0.89 0.90 0.81 0.68 0.58 0.53 0.57 0.60 0.62 0.65 0.67 0.68 0.67 0.70 0.76 0.83 0.91 0.97 1.00 0.98 0.97 0.95
1.26 1.25 1.24 1.22 1.15 1.08 1.03 0.99 1.03 1.08 1.02 0.96 0.92 0.92 0.93 0.93 0.93 0.91 0.87 0.89 0.94 0.88 0.80 0.82 0.76 0.73 0.65 0.64 0.68 0.69 0.67 0.69 0.70 0.69 0.70 0.74 0.81 0.88 0.91 0.95 0.96 0.92 0.90 0.89
1.17 1.16 1.17 1.14 1.07 1.10 1.09 1.06 1.10 1.12 1.05 1.00 0.96 0.92 0.87 0.84 0.86 0.91 0.97 0.95 0.88 0.83 0.73 0.70 0.68 0.72 0.71 0.75 0.79 0.79 0.75 0.74 0.72 0.68 0.72 0.80 0.86 0.91 0.90 0.84 0.82 0.84 0.83 0.80
1.09 1.11 1.13 1.08 1.05 1.05 1.05 1.02 1.05 1.13 1.11 1.03 1.04 1.01 0.98 0.99 0.98 0.98 0.97 0.96 0.91 0.83 0.76 0.71 0.67 0.63 0.65 0.70 0.72 0.74 0.75 0.75 0.73 0.75 0.80 0.83 0.82 0.80 0.76 0.72 0.73 0.73 0.71 0.72